Location: Austin
(30.3000°N, 97.7500°W)
Time: 23:00:32
(UTC-06:00)

Cosmos 540 Rocket - Pass Details

Date: 03 December 2025
Orbit: 735 x 747 km, 74.1° (Epoch: 07 December)

Event Time Altitude Azimuth Distance (km) Brightness Sun altitude
Rises 05:43:39 0° 216° (SW) 3,176 6.5 -18.6°
Reaches altitude 10° 05:46:11 10° 225° (SW) 2,256 5.6 -18.1°
Maximum altitude 05:50:49 34° 290° (WNW) 1,205 4.0 -17.2°
Drops below altitude 10° 05:55:29 10° 356° (N) 2,265 5.7 -16.2°
Sets 05:58:03 0° 5° (N) 3,191 6.6 -15.7°
